Temp
44 40 33 41 41 41 39 36 35 39 42 37 38 39 44 46 41 42 41 40 41 42 44 45 44 41 42 42 42 42 42 45 45 47 46 47 47 49 50 51 53 53 53 54
41 37 42 44 42 41 38 35 34 39 40 38 36 38 45 42 40 41 41 39 41 41 42 43 41 40 40 39 41 41 43 44 44 47 47 47 48 49 50 51 52 53 54 53
38 40 45 44 39 39 36 34 32 36 39 36 33 34 38 39 39 41 40 41 42 42 41 42 41 39 39 39 39 41 42 44 46 47 47 48 49 51 51 50 51 52 53 53
39 42 42 39 39 40 35 39 37 36 34 27 34 26 32 35 38 39 39 39 39 41 41 42 40 38 39 40 39 40 42 44 46 47 46 45 46 46 50 53 53 53 54 53
38 39 38 37 40 43 38 40 37 35 32 29 28 23 32 33 35 36 38 39 39 40 40 40 39 39 40 40 39 39 42 43 46 46 46 45 46 48 50 53 52 50 53 55
37 42 41 41 40 40 42 38 36 32 30 22 24 24 30 29 36 36 38 40 40 39 39 39 39 38 39 39 39 39 41 43 45 45 45 45 45 46 47 51 53 53 54 57
35 36 39 42 38 40 38 34 24 23 21 26 27 25 33 39 40 40 41 40 39 38 37 37 37 37 38 38 38 40 40 41 42 44 44 44 45 46 46 48 50 52 53 53
30 28 37 41 39 36 34 35 27 23 23 27 28 25 36 39 39 40 41 40 38 37 37 37 37 37 37 38 38 39 40 41 43 43 43 44 44 45 45 46 48 49 50 52
29 31 37 39 40 39 34 31 35 28 18 22 29 34 40 39 39 36 37 37 37 37 36 37 36 36 37 37 38 38 40 43 41 43 43 43 43 43 43 45 46 47 48 49
38 30 35 37 39 38 36 39 30 26 21 20 29 31 35 39 39 38 37 36 36 36 36 36 36 35 36 36 37 39 41 40 41 43 43 43 43 43 44 44 43 44 46 47
40 35 30 35 33 32 33 32 31 32 29 27 24 35 41 41 40 39 39 39 37 36 36 36 36 35 36 36 37 38 40 40 42 43 43 43 42 43 43 43 43 43 44 45
41 34 25 30 33 36 35 34 33 29 27 26 28 32 43 41 38 40 41 40 38 38 37 36 36 35 35 36 37 37 41 40 43 42 42 43 43 43 42 42 42 43 43 43
40 27 19 26 31 32 32 34 35 33 31 27 26 33 43 39 39 39 39 39 39 37 36 36 34 34 34 35 36 37 39 43 41 41 42 42 41 41 41 41 42 43 43 42
45 32 32 31 33 31 29 31 34 35 24 30 29 35 43 41 40 39 39 39 38 37 37 35 34 34 34 35 35 36 37 42 43 41 39 39 39 38 38 38 39 38 38 38
40 28 29 31 32 32 32 31 31 32 37 33 36 35 48 48 45 45 44 41 39 38 37 37 37 35 34 34 34 36 36 37 37 36 37 35 35 35 35 34 34 34 35 35
37 27 27 26 30 30 27 32 31 34 36 35 37 37 49 45 42 42 42 42 40 40 40 40 39 37 36 36 35 36 36 36 36 35 34 34 34 34 33 33 33 33 32 33
35 28 27 24 27 24 27 29 32 32 32 38 31 45 42 40 43 43 45 43 42 44 43 41 40 41 40 38 39 36 37 36 35 35 34 34 33 33 32 32 32 32 31 31
31 32 32 27 25 27 35 32 35 38 42 40 40 45 43 42 41 43 44 44 43 45 45 43 43 43 42 39 38 37 36 37 35 34 33 33 33 32 32 32 31 30 30 30
39 35 30 27 20 31 35 32 32 33 36 42 41 45 49 40 39 42 43 42 44 44 46 45 45 45 43 39 40 38 35 36 35 34 34 33 32 32 31 31 30 29 30 30
37 39 33 25 26 20 32 34 35 40 32 44 45 46 42 40 36 40 42 42 44 44 43 43 42 42 43 41 39 39 37 36 36 35 35 34 32 32 31 31 30 30 30 31
30 31 29 27 24 24 34 35 35 30 37 39 43 42 39 40 43 45 41 42 42 43 43 43 41 42 44 41 40 39 39 37 39 37 35 33 33 32 32 30 29 29 29 30
30 29 29 27 24 26 34 35 36 41 39 38 39 41 40 42 41 41 43 43 42 42 41 40 40 39 40 38 39 39 39 41 38 35 35 34 32 33 32 29 28 27 29 27
29 33 31 32 32 38 35 35 39 39 41 38 39 38 41 41 39 40 42 42 42 41 38 37 38 36 36 36 39 39 41 39 35 34 34 34 31 31 31 30 28 27 27 26
28 32 31 34 38 36 37 37 39 40 41 39 39 40 39 40 40 38 37 37 37 38 38 36 35 35 34 34 36 40 38 37 36 36 35 34 32 30 29 31 31 31 29 28
28 30 30 29 35 35 37 38 41 42 40 39 38 38 41 39 38 36 37 37 37 36 37 35 35 34 34 33 34 35 34 35 36 36 35 34 34 32 30 31 31 32 33 34
31 30 28 28 29 32 40 44 42 42 42 42 37 38 37 35 36 36 36 36 36 36 31 30 31 31 32 31 32 32 34 36 36 34 35 35 34 32 33 32 30 36 36 36
MSLP
1014.30 1014.76 1015.04 1015.04 1015.15 1015.36 1015.66 1015.96 1015.99 1015.50 1015.50 1015.75 1015.16 1014.15 1012.74 1012.92 1013.12 1013.32 1013.55 1014.00 1014.23 1014.49 1014.38 1014.63 1014.94 1015.27 1015.41 1015.53 1015.37 1015.09 1014.40 1013.69 1013.29 1012.47 1011.79 1011.03 1010.32 1009.59 1009.00 1008.72 1008.50 1008.51 1008.72 1008.81
1014.99 1014.84 1014.54 1014.70 1015.07 1015.51 1015.78 1016.03 1016.11 1015.65 1015.72 1016.13 1015.41 1013.47 1012.14 1011.91 1012.18 1012.44 1012.85 1013.34 1013.64 1014.24 1014.44 1014.73 1015.02 1015.30 1015.60 1015.60 1015.33 1015.00 1014.36 1013.79 1013.31 1012.51 1011.88 1011.27 1010.49 1009.42 1008.72 1008.30 1008.22 1008.20 1008.32 1008.47
1014.94 1014.78 1014.50 1014.76 1015.23 1015.59 1015.82 1016.21 1016.44 1016.61 1016.27 1016.38 1016.26 1013.76 1012.14 1011.91 1011.86 1011.87 1012.15 1012.55 1013.13 1013.70 1014.31 1014.69 1015.12 1015.39 1015.63 1015.57 1015.49 1015.10 1014.37 1013.82 1013.08 1012.35 1011.69 1010.99 1010.19 1009.17 1008.33 1008.02 1007.91 1007.94 1008.07 1008.14
1014.92 1014.61 1014.67 1014.89 1015.24 1015.55 1016.02 1015.92 1016.47 1016.95 1017.43 1017.79 1017.15 1016.17 1013.24 1012.11 1011.72 1011.63 1012.05 1012.62 1013.10 1013.71 1014.31 1014.63 1015.02 1015.39 1015.57 1015.50 1015.46 1015.09 1014.40 1013.79 1012.99 1012.35 1011.76 1011.24 1010.59 1009.61 1008.47 1007.51 1007.63 1007.73 1007.90 1008.15
1014.71 1014.75 1014.96 1015.08 1015.15 1015.42 1015.94 1016.20 1016.86 1017.40 1017.94 1018.46 1018.05 1018.15 1012.88 1012.28 1011.58 1011.47 1012.05 1012.79 1013.34 1013.84 1014.20 1014.57 1014.94 1015.27 1015.31 1015.44 1015.47 1015.08 1014.40 1013.88 1013.03 1012.45 1011.95 1011.38 1010.66 1009.90 1008.93 1008.08 1007.86 1007.89 1008.00 1008.08
1014.91 1014.84 1014.89 1015.08 1015.54 1015.72 1016.16 1016.72 1017.35 1017.99 1018.44 1018.76 1017.95 1017.76 1013.73 1012.39 1011.35 1011.31 1011.87 1012.79 1013.40 1013.96 1014.32 1014.74 1015.06 1015.28 1015.28 1015.43 1015.38 1014.98 1014.45 1013.97 1013.19 1012.55 1012.18 1011.75 1011.05 1010.34 1009.76 1008.79 1008.30 1008.18 1007.95 1007.96
1015.34 1015.16 1015.01 1015.12 1015.88 1016.26 1016.51 1017.14 1017.98 1018.56 1018.94 1018.10 1017.58 1017.54 1012.61 1011.13 1010.96 1010.97 1011.47 1012.52 1013.35 1013.99 1014.41 1014.80 1015.11 1015.40 1015.28 1015.57 1015.42 1015.04 1014.57 1014.06 1013.45 1012.75 1012.51 1012.15 1011.61 1011.09 1010.74 1010.02 1009.30 1008.77 1008.67 1008.90
1015.13 1015.56 1014.98 1014.98 1015.20 1015.65 1016.56 1016.87 1017.33 1017.90 1018.75 1017.79 1017.16 1015.28 1011.12 1010.17 1010.24 1010.67 1011.29 1012.07 1013.20 1013.96 1014.40 1014.80 1015.07 1015.46 1015.40 1015.61 1015.51 1015.12 1014.68 1014.31 1013.73 1013.05 1012.88 1012.58 1012.27 1011.78 1011.40 1011.05 1010.54 1010.10 1009.89 1009.61
1014.58 1014.80 1014.92 1014.83 1014.95 1015.56 1016.61 1016.88 1016.68 1017.25 1018.75 1017.72 1014.97 1012.62 1010.12 1009.90 1010.13 1010.75 1011.44 1012.34 1013.19 1013.65 1014.36 1014.78 1015.16 1015.47 1015.53 1015.58 1015.64 1015.31 1014.75 1014.51 1013.99 1013.43 1013.20 1013.04 1012.77 1012.53 1012.06 1011.82 1011.51 1011.26 1010.94 1010.79
1013.13 1014.47 1015.31 1015.32 1015.27 1015.73 1015.99 1016.27 1016.91 1017.30 1017.59 1016.60 1013.95 1012.53 1010.31 1009.50 1009.64 1010.51 1011.49 1012.21 1013.07 1013.57 1014.31 1014.79 1015.22 1015.48 1015.61 1015.40 1015.53 1015.37 1014.82 1014.73 1014.26 1013.78 1013.47 1013.32 1013.18 1013.11 1012.70 1012.35 1012.45 1012.40 1012.15 1011.90
1012.75 1013.67 1015.87 1015.75 1015.40 1015.14 1016.19 1016.23 1016.48 1016.44 1016.05 1015.30 1014.06 1010.66 1008.80 1008.72 1008.98 1009.95 1010.83 1011.60 1012.59 1013.20 1013.91 1014.46 1014.96 1015.38 1015.52 1015.48 1015.37 1015.53 1015.05 1014.90 1014.51 1014.04 1013.84 1013.52 1013.58 1013.46 1013.40 1013.06 1012.97 1012.94 1013.00 1012.98
1012.30 1013.41 1015.17 1015.33 1015.18 1015.12 1015.12 1015.30 1015.68 1015.78 1015.75 1015.06 1013.73 1010.21 1008.18 1008.39 1008.80 1009.55 1010.33 1011.15 1011.92 1012.63 1013.22 1013.98 1014.61 1015.11 1015.34 1015.52 1015.35 1015.47 1015.31 1015.05 1014.85 1014.42 1014.16 1013.83 1013.94 1013.96 1013.71 1013.56 1013.63 1013.23 1012.96 1013.27
1011.68 1012.80 1014.78 1015.55 1015.79 1015.58 1015.18 1014.72 1014.82 1015.15 1015.03 1014.28 1012.97 1009.68 1008.00 1008.05 1008.54 1009.05 1009.91 1010.73 1011.40 1012.17 1012.91 1013.72 1014.48 1014.84 1015.04 1015.16 1015.39 1015.32 1015.37 1015.22 1015.13 1014.91 1014.54 1014.27 1014.47 1014.58 1014.54 1014.40 1014.32 1014.20 1013.97 1013.96
1011.07 1011.98 1012.46 1012.99 1012.87 1013.22 1014.38 1013.84 1013.90 1014.07 1014.60 1013.26 1011.24 1009.21 1007.89 1007.86 1008.19 1008.66 1009.39 1010.11 1010.88 1011.71 1012.48 1013.06 1013.92 1014.41 1014.74 1014.85 1015.09 1015.24 1015.32 1015.40 1015.37 1015.35 1015.07 1015.03 1015.01 1015.41 1015.41 1015.23 1015.15 1015.09 1015.23 1015.16
1011.18 1012.09 1012.56 1012.71 1012.69 1012.87 1013.02 1013.20 1013.42 1013.36 1012.38 1011.96 1009.96 1008.74 1007.23 1007.29 1007.53 1007.95 1008.46 1009.38 1010.28 1010.90 1011.79 1012.32 1012.85 1013.56 1014.10 1014.58 1014.83 1014.98 1015.12 1015.40 1015.67 1015.89 1015.62 1015.60 1015.61 1015.73 1015.98 1016.09 1016.07 1016.08 1016.12 1016.17
1011.51 1012.11 1012.56 1013.03 1013.01 1013.02 1013.07 1012.64 1012.79 1012.51 1011.80 1010.93 1009.90 1007.76 1006.70 1006.45 1006.82 1007.39 1008.10 1009.06 1009.72 1010.06 1010.49 1011.07 1011.80 1012.54 1013.19 1013.77 1014.07 1014.45 1014.74 1015.18 1015.71 1016.09 1016.17 1015.91 1015.95 1015.98 1016.47 1016.81 1017.12 1017.17 1017.16 1017.22
1011.98 1011.95 1012.75 1013.37 1013.26 1013.41 1012.50 1010.49 1011.30 1011.01 1010.23 1009.27 1009.30 1004.93 1005.77 1005.94 1006.78 1007.41 1007.72 1008.14 1008.45 1008.66 1008.84 1009.59 1010.21 1010.79 1011.59 1012.34 1013.05 1013.79 1014.11 1014.81 1015.41 1016.03 1016.41 1016.32 1016.29 1016.49 1016.62 1016.79 1017.21 1017.99 1018.32 1018.24
1011.63 1012.02 1012.32 1013.07 1013.38 1012.00 1008.35 1008.10 1008.21 1008.19 1007.74 1007.84 1006.73 1005.28 1005.56 1005.99 1006.45 1006.80 1006.91 1007.20 1007.26 1007.45 1007.61 1008.11 1008.69 1009.53 1010.31 1011.35 1012.36 1013.06 1013.82 1014.23 1015.11 1015.68 1016.37 1016.57 1016.59 1016.69 1016.99 1017.09 1017.07 1017.40 1018.04 1018.81
1010.65 1011.44 1011.82 1012.11 1012.15 1009.30 1007.73 1008.25 1008.08 1007.76 1006.20 1005.69 1005.72 1004.91 1005.05 1006.20 1006.44 1006.11 1006.04 1006.35 1006.51 1006.71 1006.75 1006.95 1007.40 1007.89 1008.97 1009.95 1010.98 1012.13 1013.28 1013.87 1014.50 1015.23 1015.79 1016.48 1016.70 1016.73 1017.07 1017.23 1017.53 1017.49 1017.66 1018.18
1010.38 1010.44 1010.96 1011.39 1010.85 1009.39 1006.98 1006.45 1006.43 1006.43 1005.37 1003.71 1003.80 1003.95 1005.49 1006.31 1006.51 1005.76 1005.71 1005.88 1006.01 1006.15 1006.19 1006.39 1006.78 1007.52 1008.18 1008.86 1010.02 1011.21 1012.18 1013.12 1013.62 1014.07 1014.72 1015.58 1016.46 1016.96 1016.81 1017.30 1017.56 1017.71 1017.72 1017.91
1009.96 1010.01 1009.64 1010.03 1009.64 1007.94 1006.54 1006.61 1006.78 1006.38 1004.05 1002.94 1003.12 1003.91 1005.08 1006.06 1005.84 1005.64 1005.66 1005.81 1005.97 1006.00 1005.96 1006.05 1006.51 1007.06 1007.35 1008.39 1009.28 1010.11 1011.00 1011.40 1011.77 1012.84 1013.60 1014.72 1015.63 1016.33 1016.98 1017.13 1017.53 1017.81 1018.26 1018.41
1008.66 1008.95 1009.08 1009.18 1008.69 1007.77 1006.38 1007.01 1006.78 1004.61 1003.64 1003.55 1003.53 1004.08 1004.62 1004.89 1005.45 1005.90 1005.97 1005.89 1006.01 1006.10 1006.02 1006.03 1006.43 1006.78 1007.29 1008.00 1008.87 1009.55 1009.58 1009.82 1011.21 1012.30 1013.19 1013.72 1014.65 1015.52 1016.20 1017.12 1017.59 1018.18 1018.39 1018.65
1008.89 1007.64 1007.85 1007.75 1006.64 1005.69 1005.71 1005.12 1004.66 1004.40 1004.14 1004.27 1004.15 1004.45 1004.81 1005.08 1005.40 1005.87 1006.12 1006.09 1006.09 1006.08 1006.02 1006.04 1006.29 1006.76 1007.24 1007.71 1008.24 1008.58 1008.49 1009.72 1010.60 1011.59 1012.47 1013.06 1013.92 1014.76 1015.59 1016.21 1016.95 1017.72 1018.32 1018.72
1010.06 1009.34 1008.29 1007.63 1006.33 1005.68 1005.52 1005.17 1004.97 1004.69 1004.86 1004.92 1004.96 1005.15 1005.43 1005.50 1005.47 1005.78 1006.03 1006.22 1006.27 1006.08 1006.03 1006.09 1006.31 1006.71 1007.08 1007.37 1007.60 1007.73 1008.49 1009.25 1009.96 1010.83 1011.66 1012.65 1013.31 1014.01 1014.91 1015.63 1016.04 1016.62 1017.06 1017.71
1013.21 1011.76 1010.18 1008.62 1006.98 1006.51 1005.96 1005.28 1004.64 1004.86 1005.09 1005.53 1005.79 1005.80 1005.76 1005.85 1005.81 1006.12 1006.24 1006.34 1006.45 1006.34 1006.11 1006.09 1006.47 1006.61 1006.70 1007.07 1007.32 1007.54 1007.89 1008.75 1009.72 1010.27 1010.79 1011.59 1012.24 1013.05 1013.77 1014.11 1014.59 1015.05 1015.28 1015.57
1012.30 1011.53 1011.39 1010.51 1010.75 1010.02 1007.76 1006.04 1004.80 1005.07 1005.03 1005.13 1005.84 1006.04 1005.97 1006.11 1006.53 1006.75 1006.76 1006.93 1006.66 1006.38 1006.33 1006.39 1006.50 1006.55 1006.37 1006.57 1006.78 1007.03 1007.39 1008.00 1008.89 1009.84 1010.35 1010.63 1011.35 1012.04 1012.68 1013.26 1013.87 1013.94 1014.29 1014.76
Wind_Speed
4 4 5 7 6 3 3 2 5 4 0 3 8 17 21 11 10 13 11 9 9 9 5 5 3 2 5 4 7 7 9 10 7 7 7 6 7 8 6 5 7 6 5 5
5 5 4 3 3 4 2 2 6 6 1 2 6 23 17 6 6 7 9 9 9 5 5 5 2 2 4 6 7 8 8 9 8 6 6 4 6 7 7 4 4 5 5 5
5 0 4 4 3 4 2 4 3 5 7 1 8 11 5 1 2 3 3 5 6 10 9 6 2 2 5 7 7 8 8 8 8 9 6 6 7 6 3 2 3 4 5 5
4 1 4 3 3 5 2 2 2 2 5 4 5 8 8 5 7 2 1 3 6 7 5 4 3 2 5 6 6 7 7 8 8 9 7 9 6 7 5 4 1 3 4 4
5 6 3 3 4 6 4 3 2 1 1 4 3 4 12 4 4 1 3 4 6 7 8 6 4 1 4 5 6 7 7 7 8 8 8 7 8 7 8 4 5 4 2 2
1 0 3 4 3 1 6 4 5 3 2 3 3 5 9 3 4 1 2 6 7 7 6 5 3 0 4 5 6 6 7 7 8 8 9 10 9 9 10 8 6 5 5 4
1 3 2 4 5 3 3 4 3 6 3 7 3 1 13 5 6 4 4 8 8 7 7 5 4 0 4 7 6 6 7 7 7 8 9 10 10 10 10 11 6 6 5 5
8 5 9 5 5 7 6 6 6 7 3 5 3 8 8 5 2 5 5 4 7 8 7 6 5 2 1 6 6 6 6 6 7 8 9 8 10 6 7 10 8 6 4 6
7 2 2 2 3 4 5 6 2 6 2 3 4 8 8 5 7 2 4 5 8 8 7 7 5 4 2 3 5 6 6 5 6 7 6 7 8 8 8 10 10 8 8 6
6 4 1 1 3 2 4 4 3 3 3 4 5 6 8 5 7 7 6 8 8 7 7 6 5 5 3 1 3 6 4 5 5 5 5 5 6 7 6 7 9 10 9 9
6 5 1 2 7 9 4 3 1 1 4 5 2 7 6 4 4 9 9 8 9 9 8 8 7 5 4 2 2 5 4 4 5 5 5 6 6 7 5 7 7 9 10 10
6 6 5 7 1 2 4 7 7 5 6 3 2 10 1 3 1 5 7 8 8 8 9 8 8 7 6 4 3 1 3 3 4 4 4 7 6 6 6 7 6 7 12 9
9 3 4 6 3 3 6 7 5 3 2 6 6 8 2 3 4 4 6 7 7 8 8 7 7 7 7 6 5 3 3 2 2 3 4 7 7 6 6 6 6 6 9 9
8 3 7 9 5 6 7 7 9 7 4 3 8 8 7 3 4 4 5 5 8 7 8 7 7 8 7 7 7 6 3 0 1 2 5 7 7 6 6 6 7 7 6 9
6 7 5 2 3 3 4 6 12 13 13 10 2 12 14 11 9 8 6 5 7 9 9 10 11 9 8 7 7 6 5 3 2 2 5 5 6 6 6 7 7 6 7 7
4 3 4 2 2 2 4 7 10 15 12 14 13 27 13 11 4 5 4 7 8 8 11 12 11 10 12 11 10 8 7 7 5 4 4 5 6 7 7 6 7 7 7 7
5 6 4 5 1 2 10 14 16 8 8 13 12 24 4 2 6 6 8 9 10 12 13 14 16 16 14 15 13 11 11 7 7 6 4 4 6 6 6 7 8 6 6 6
6 5 2 3 1 10 2 1 7 18 15 17 11 17 6 3 3 5 8 9 9 12 11 12 13 13 13 11 11 8 8 11 8 7 6 5 5 6 6 6 7 8 6 6
6 9 4 5 4 9 5 6 10 11 12 21 22 24 19 1 2 7 3 2 9 8 10 10 12 14 13 15 15 13 10 10 10 9 9 7 6 7 6 6 6 5 7 6
11 11 7 4 6 12 3 3 4 5 8 9 21 22 8 6 3 4 2 4 6 5 5 7 8 8 12 14 15 15 14 13 14 13 13 10 7 6 8 6 6 3 3 5
6 7 15 6 5 9 8 4 4 7 8 1 11 7 9 6 5 1 4 3 4 3 5 3 7 11 14 13 16 17 16 18 17 13 12 11 10 9 6 6 4 5 4 5
11 9 6 3 3 11 6 5 8 5 4 1 4 7 8 6 1 3 6 6 5 6 5 2 6 7 7 11 14 15 19 17 13 12 12 13 11 9 7 7 4 3 5 6
5 5 6 8 7 2 8 2 4 1 2 2 4 3 6 5 3 4 5 6 6 7 5 2 6 7 7 10 13 16 16 12 13 13 13 13 11 10 8 10 8 5 5 4
15 11 5 4 7 8 8 5 5 3 1 2 3 4 4 3 4 7 7 5 5 5 4 2 4 6 7 8 12 14 8 10 15 15 14 11 12 11 9 7 7 7 8 8
7 10 9 7 8 7 6 8 5 4 1 4 3 4 7 5 7 5 6 7 5 4 3 2 5 6 7 7 10 8 8 11 13 13 12 12 11 12 11 11 11 11 10 11
6 3 4 4 13 13 13 14 7 5 4 2 2 6 4 3 6 4 6 5 4 5 3 3 4 4 6 7 8 8 10 13 13 11 10 10 10 9 10 10 8 15 13 15
Wind_Direction
6 81 203 214 188 118 111 219 263 270 321 272 243 272 276 258 224 235 231 216 217 223 239 182 169 346 336 324 322 315 314 321 327 331 332 327 312 307 287 246 244 240 230 223
37 235 207 142 146 190 214 296 278 282 303 249 321 290 284 259 234 221 233 215 205 181 188 194 178 347 336 315 322 317 318 326 327 326 317 288 299 291 277 260 243 229 229 211
163 359 110 133 135 152 211 185 243 247 324 246 311 291 333 290 296 287 240 206 189 184 186 193 177 329 324 325 328 320 324 323 324 333 318 319 306 308 287 240 234 218 214 197
229 295 154 139 178 134 276 178 161 332 18 271 10 281 303 312 307 288 243 205 186 159 160 162 135 315 310 315 320 317 328 329 331 335 343 338 321 323 310 297 160 162 186 176
232 160 155 154 203 166 219 103 102 68 51 338 355 66 269 334 344 319 206 201 175 164 166 167 166 268 304 333 331 323 333 324 334 348 359 346 345 337 326 15 60 88 149 213
208 272 170 182 76 91 139 78 50 56 55 343 223 129 284 257 214 203 196 204 183 166 163 165 159 7 340 340 343 338 351 331 343 1 9 356 356 358 355 358 55 56 42 83
62 215 165 135 89 38 89 86 326 345 9 226 150 75 245 250 229 203 189 202 190 174 170 189 192 123 8 335 354 344 358 341 346 13 15 3 359 11 16 354 11 44 72 49
159 275 170 182 176 177 181 169 171 212 221 284 109 236 253 211 232 255 244 187 169 178 182 197 197 174 51 323 358 350 3 337 351 17 16 13 12 17 25 13 11 29 39 71
157 253 66 92 129 127 188 205 172 107 48 38 232 280 286 256 265 227 195 158 191 189 185 197 193 187 181 320 353 344 1 341 352 23 29 17 29 25 41 39 25 19 27 54
203 102 321 151 111 86 178 171 94 344 169 254 277 274 247 256 235 216 213 207 210 191 185 193 199 193 216 227 344 334 9 344 356 32 41 41 32 41 38 66 56 40 36 51
147 114 322 124 211 171 146 213 83 148 171 180 261 262 213 244 212 205 220 209 203 194 193 191 196 199 197 219 47 325 359 355 14 35 40 59 39 46 37 63 82 86 65 52
187 120 166 205 280 190 161 192 177 154 219 236 140 274 245 228 314 200 229 214 204 198 193 188 185 180 190 211 150 336 335 31 20 22 50 68 52 47 57 52 55 87 100 81
181 221 82 354 349 334 219 190 167 122 77 210 154 253 167 235 265 252 246 240 210 197 191 189 181 187 194 194 190 168 292 34 43 31 54 68 53 46 52 67 63 65 85 87
130 157 176 187 184 134 196 191 178 155 146 213 229 283 278 271 266 260 240 230 206 206 198 190 191 193 199 193 190 173 210 254 43 71 79 75 73 51 45 51 50 56 56 82
163 194 166 208 135 139 184 179 184 201 209 200 211 232 248 242 238 231 210 196 198 205 201 206 200 191 192 196 194 179 177 190 141 122 105 107 101 81 58 43 44 48 64 70
206 184 115 295 219 247 259 223 193 215 234 251 261 277 266 231 253 256 215 212 224 221 216 210 200 187 192 196 195 187 171 182 166 173 165 135 116 111 100 83 59 52 53 57
180 133 110 257 116 134 278 202 190 198 211 208 200 238 243 147 199 240 255 230 219 222 221 198 200 201 193 192 189 190 176 159 168 180 190 166 141 125 130 127 114 91 64 82
149 144 155 160 137 222 252 130 190 210 227 215 249 249 211 189 190 232 244 249 243 224 229 207 202 198 192 179 185 169 170 168 172 173 194 193 168 153 156 148 141 134 123 108
171 175 180 176 211 308 263 196 164 177 252 216 226 250 256 170 1 289 195 225 244 238 244 217 204 201 183 176 179 172 170 177 170 184 186 196 194 166 169 171 167 153 142 143
197 213 212 145 191 214 250 193 171 130 272 222 204 227 177 138 168 243 181 315 297 271 252 223 194 179 181 181 168 173 181 181 191 186 191 183 179 196 179 181 173 174 147 142
173 188 204 187 221 282 246 146 168 133 246 156 188 152 141 175 210 218 330 330 304 294 307 239 168 183 193 172 171 183 183 196 196 184 172 174 181 182 203 165 161 151 152 139
174 171 192 144 167 260 146 68 180 228 349 127 127 153 168 180 47 294 294 298 324 321 317 225 184 193 176 168 176 191 199 195 181 172 182 178 180 182 169 169 156 152 157 161
205 195 181 190 208 240 211 236 229 327 91 11 98 124 152 161 232 289 274 287 296 297 293 251 204 188 176 172 189 202 205 177 169 173 188 188 174 176 174 172 172 155 163 177
354 5 280 131 244 233 231 259 251 214 314 114 96 154 197 226 283 293 288 287 285 302 284 241 186 197 200 187 196 210 188 175 175 186 187 184 182 179 174 184 181 182 180 185
279 327 309 299 316 334 280 236 227 145 195 256 282 244 240 223 269 251 286 306 296 285 275 205 221 227 222 190 204 197 166 163 188 192 189 187 190 189 187 192 188 197 205 196
199 267 337 330 356 336 325 330 138 134 226 231 229 277 274 215 250 247 270 264 282 319 313 268 253 248 231 195 203 188 171 176 180 193 195 193 190 187 193 195 200 214 209 203